Flag Weather past 2 weeks in Naples, Italy

Now
66 °F

Scattered clouds.


Feels Like: 66 °F
Forecast: 60 / 73 °F
Wind: 2 mph from North

Location: Naples / Capodichino

Current Time: Nov 29, 2014 at 10:57:09 AM

Latest Report: Nov 29, 2014 at 9:20 AM


Visibility: N/A

Pressure: 29.95 "Hg

Humidity: 78%

Dew point: 59 °F

Location of NaplesLocation

Historic Weather in Naples — Graph

°F

Naples temperature yesterday

Maximum temperature yesterday: 73 °F (at 12:20 PM)
Minimum temperature yesterday: 52 °F (at 2:20 AM)
Average temperature yesterday: 62 °F

Past Weeks' High & Low Weather Summary

 TemperatureHumidityPressure
High73 °F (Nov 28, 12:20 PM)100% (Nov 16, 12:50 AM)30.33 "Hg (Nov 16, 12:50 AM)
Low14 °F (Nov 23, 3:50 AM)33% (Nov 20, 2:20 PM)29.77 "Hg (Nov 17, 11:50 PM)
Average60 °F78%30.04 "Hg
* Reported Nov 14 11:20 AM — Nov 29 9:20 AM, Naples, Weather by CustomWeather, © 2014

Note: Actual official high and low records may vary slightly from our data, if they occured in-between our weather recording intervals... More about our weather records

Advertising

Naples weather history for previous 24 hours

 ConditionsComfort  
Time TempWeatherWind HumidityBarometerVisibility
9:20 AM
Nov 29
66 °FScattered clouds.2 mph78%29.95 "HgN/A
8:20 AM66 °FScattered clouds.3 mph73%29.92 "HgN/A
5:50 AM66 °FClear.2 mph73%29.92 "Hg10 mi
2:20 AM70 °FPassing clouds.7 mph64%29.92 "HgN/A
12:20 AM68 °FPassing clouds.5 mph69%29.89 "HgN/A
11:20 PM
Nov 28
68 °FPassing clouds.6 mph64%29.89 "HgN/A
10:50 PM66 °FPassing clouds.1 mph64%29.89 "HgN/A
10:20 PM66 °FPassing clouds.1 mph64%29.89 "HgN/A
9:50 PM64 °FPassing clouds.2 mph64%29.89 "HgN/A
9:20 PM64 °FPassing clouds.3 mph64%29.89 "HgN/A
8:50 PM64 °FPassing clouds.2 mph64%29.89 "HgN/A
8:20 PM64 °FPassing clouds.2 mph64%29.89 "HgN/A
7:50 PM66 °FClear.1 mph60%29.89 "Hg10 mi
6:50 PM68 °FPassing clouds.5 mph53%29.86 "HgN/A
5:20 PM70 °FClear.2 mph50%29.86 "Hg10 mi
4:50 PM72 °FPassing clouds.3 mph47%29.83 "HgN/A
2:50 PM72 °FPassing clouds.3 mph57%29.86 "HgN/A
1:50 PM72 °FScattered clouds.2 mph57%29.86 "HgN/A
1:20 PM72 °FScattered clouds.3 mph53%29.86 "HgN/A
12:50 PM72 °FScattered clouds.3 mph53%29.86 "HgN/A
12:20 PM73 °FScattered clouds.5 mph47%29.86 "HgN/A
11:50 AM72 °FSunny.No wind53%29.89 "Hg10 mi
11:20 AM70 °FSunny.2 mph57%29.89 "Hg10 mi
10:50 AM68 °FPassing clouds.2 mph64%29.89 "HgN/A
10:20 AM64 °FPassing clouds.3 mph68%29.89 "HgN/A
Weather by CustomWeather, © 2014

See weather overviewHow to use our weather pages